Location: Gettysburg
(39.8310°N, 77.2310°W)
Time: 00:15:29
(UTC-04:00)

ATLAS 2AS CENTAUR R/B - Visible Passes

Search period start: 24 October 2017 00:00
Search period end: 03 November 2017 00:00
Orbit: 907 x 1305 km, 63.7° (Epoch: 16 October)

Date Brightness Start Highest point End Pass type
(mag) Time Alt. Az. Time Alt. Az. Time Alt. Az.
24 Oct 3.6 05:59:00 10° SSW 06:06:27 61° ESE 06:14:23 10° NE visible
25 Oct 4.2 05:14:58 10° S 05:21:52 39° ESE 05:29:11 10° NE visible
26 Oct 4.9 04:31:36 10° SSE 04:37:27 25° ESE 04:43:35 10° ENE visible
26 Oct 3.0 06:20:01 10° SW 06:27:42 74° NW 06:35:52 10° NNE visible
27 Oct 5.3 03:49:24 10° SE 03:53:11 14° ESE 03:57:04 10° ENE visible
27 Oct 3.1 05:35:14 10° SSW 05:42:51 77° ESE 05:50:59 10° NE visible
28 Oct 3.7 04:52:53 20° S 04:58:11 51° ESE 05:05:55 10° NE visible
28 Oct 3.5 06:42:05 10° WSW 06:49:24 42° NW 06:57:03 10° NNE visible
29 Oct 4.3 04:10:59 26° SE 04:13:40 33° ESE 04:20:35 10° NE visible
29 Oct 3.1 05:58:31 19° SW 06:04:15 60° NW 06:12:19 10° NNE visible
30 Oct 4.9 03:28:49 20° ESE 03:29:19 20° ESE 03:34:43 10° ENE visible
30 Oct 2.9 05:16:19 43° SW 05:19:19 86° WNW 05:27:30 10° NNE visible
30 Oct 4.1 07:05:09 10° W 07:11:32 26° NW 07:18:06 10° NNE visible
31 Oct 5.5 02:46:25 11° E 02:46:25 11° E 02:47:04 10° E visible
31 Oct 3.2 04:33:55 63° SE 04:34:32 66° ESE 04:42:33 10° NE visible
31 Oct 3.7 06:21:26 19° W 06:26:08 35° NW 06:33:27 10° NNE visible
01 Nov 4.1 03:51:22 39° E 03:51:22 39° E 03:57:24 10° NE visible
01 Nov 3.3 05:38:52 41° W 05:40:54 48° NW 05:48:45 10° NNE visible
02 Nov 5.0 03:08:41 21° ENE 03:08:41 21° ENE 03:11:53 10° NE visible
02 Nov 3.0 04:56:10 69° NW 04:56:10 69° NW 05:03:59 10° NNE visible
02 Nov 4.3 06:43:39 13° WNW 06:48:26 22° NNW 06:54:28 10° NNE visible
